Location: Wanzleben
(52.0609°N, 11.4408°E)
Time: 11:16:37
(UTC+00:00)

Cosmos 2263 Rocket - Pass Details

Date: 18 January 2021
Orbit: 825 x 847 km, 71.0° (Epoch: 24 February)

Event Time Altitude Azimuth Distance (km) Brightness Sun altitude
Rises 17:48:46 0° 221° (SW) 3,400 6.1 -19.6°
Reaches altitude 10° 17:51:15 10° 225° (SW) 2,467 5.4 -19.9°
Maximum altitude 17:56:52 61° 306° (NW) 961 2.6 -20.8°
Enters shadow 18:01:03 18° 22° (NNE) 1,953 3.8 -21.4°
